Tracking 30072 objects as of 14-Jan-2025
HD Live streaming from Space Station
objects crossing your sky now

ONEWEB-0231

Track ONEWEB-0231 now!
10-day predictions
ONEWEB-0231 is classified as:


NORAD ID: 48782
Int'l Code: 2021-045R
Perigee: 1,207.7 km
Apogee: 1,210.1 km
Inclination: 87.9 °
Period: 109.5 minutes
Semi major axis: 7579 km
RCS: Unknown
Launch date: May 28, 2021
Source: United Kingdom (UK)
Launch site: VOSTOCHNY COSMODROME (VOSTO)
Your satellite tracking list
Your tracking list is empty




NASA's NSSDC Master Catalog

Two Line Element Set (TLE):
1 48782U 21045R   25014.48863178  .00000097  00000-0  22271-3 0  9991
2 48782  87.9065   2.5166 0001559  94.4343 265.6965 13.15547456177288
Source of the keplerian elements: AFSPC